AFL1177 URSS-UUEE

Flight info

Callsign AFL1177
Flight time 3h 12m
Altitude 35000
Route IRGID1D IRGID A944 GUBOR G487 ERSAR DCT BEMES DCT VULFI DCT TUVGI DCT EVZUN DCT ZIZAR DCT VAZLU DCT UZZID DCT NOKLI N72 WGD G481 OBABI T619 UMRAL P163 LADIM/K0798F360 P163 GOLRI L736 OLOPI OLOPI3E
Aircraft A320/M-SADIE2E3FHJ1RWGY/LB1U1

Departure

Time 2026-05-06 09:38
Airport Sochi International Airport (URSS)

Arrival

Time 2026-05-06 12:50
Airport Sheremetyevo International Airport (UUEE)
Time Latitude Longitude Altitude Speed Heading
2026-05-06 08:25 43.44775 39.94246 70 ft 0 kts 335°
2026-05-06 09:28 43.44770 39.94249 74 ft 4 kts 335°
2026-05-06 09:28 43.44746 39.94265 72 ft 4 kts 335°
2026-05-06 09:29 43.44721 39.94280 70 ft 4 kts 336°
2026-05-06 09:29 43.44696 39.94294 70 ft 4 kts 342°
2026-05-06 09:29 43.44670 39.94302 66 ft 4 kts
2026-05-06 09:29 43.44655 39.94294 67 ft 0 kts 65°
2026-05-06 09:33 43.44673 39.94347 69 ft 12 kts 64°
2026-05-06 09:33 43.44714 39.94464 64 ft 13 kts 65°
2026-05-06 09:33 43.44749 39.94569 73 ft 11 kts 65°
2026-05-06 09:33 43.44780 39.94659 69 ft 10 kts 64°
2026-05-06 09:34 43.44808 39.94739 66 ft 9 kts 64°
2026-05-06 09:34 43.44832 39.94810 71 ft 8 kts 66°
2026-05-06 09:34 43.44851 39.94867 68 ft 6 kts 64°
2026-05-06 09:34 43.44875 39.94938 71 ft 7 kts 65°
2026-05-06 09:35 43.44892 39.94987 67 ft 4 kts 65°
2026-05-06 09:35 43.44909 39.95037 84 ft 10 kts 65°
2026-05-06 09:35 43.44935 39.95110 85 ft 7 kts 62°
2026-05-06 09:35 43.44956 39.95165 84 ft 8 kts 65°
2026-05-06 09:36 43.44982 39.95244 90 ft 8 kts 65°
2026-05-06 09:36 43.44998 39.95294 89 ft 5 kts 74°
2026-05-06 09:36 43.44964 39.95348 88 ft 8 kts 155°
2026-05-06 09:36 43.44922 39.95375 91 ft 6 kts 155°
2026-05-06 09:37 43.44890 39.95345 89 ft 8 kts 243°
2026-05-06 09:37 43.44809 39.95104 83 ft 62 kts 245°
2026-05-06 09:37 43.44521 39.94260 68 ft 129 kts 245°
2026-05-06 09:37 43.44091 39.92982 421 ft 152 kts 246°
2026-05-06 09:38 43.43678 39.91659 1335 ft 150 kts 255°
2026-05-06 09:38 43.43410 39.90250 2170 ft 156 kts 257°
2026-05-06 09:38 43.43168 39.88716 2706 ft 178 kts 257°
2026-05-06 09:38 43.42890 39.86937 3222 ft 201 kts 258°
2026-05-06 09:39 43.42573 39.84955 3593 ft 225 kts 257°
2026-05-06 09:39 43.42209 39.82735 4014 ft 249 kts 257°
2026-05-06 09:39 43.41810 39.80340 4702 ft 261 kts 257°
2026-05-06 09:39 43.41397 39.77885 5566 ft 267 kts 257°
2026-05-06 09:40 43.40970 39.75373 6419 ft 272 kts 257°
2026-05-06 09:40 43.40532 39.72811 7228 ft 277 kts 258°
2026-05-06 09:40 43.39662 39.67577 8919 ft 284 kts 264°
2026-05-06 09:41 43.39788 39.64871 9735 ft 286 kts 287°
2026-05-06 09:41 43.40687 39.62445 10523 ft 287 kts 311°
2026-05-06 09:41 43.42212 39.60692 11271 ft 290 kts 333°
2026-05-06 09:41 43.44061 39.59624 11998 ft 294 kts 339°
2026-05-06 09:42 43.45980 39.58588 12752 ft 299 kts 338°
2026-05-06 09:42 43.47935 39.57528 13507 ft 304 kts 338°
2026-05-06 09:42 43.49915 39.56450 14206 ft 309 kts 338°
2026-05-06 09:42 43.51926 39.55352 14885 ft 312 kts 338°
2026-05-06 09:43 43.53963 39.54236 15395 ft 323 kts 338°
2026-05-06 09:43 43.56126 39.53049 15541 ft 345 kts 339°
2026-05-06 09:43 43.58406 39.51820 15914 ft 356 kts 341°
2026-05-06 09:43 43.60831 39.51033 16511 ft 360 kts 353°
2026-05-06 09:44 43.63337 39.50934 17165 ft 362 kts
2026-05-06 09:44 43.65829 39.51540 17815 ft 365 kts 17°
2026-05-06 09:44 43.68183 39.52855 18478 ft 367 kts 29°
2026-05-06 09:44 43.70278 39.54856 19052 ft 369 kts 41°
2026-05-06 09:45 43.72013 39.57481 19588 ft 372 kts 55°
2026-05-06 09:45 43.73255 39.60586 20152 ft 374 kts 68°
2026-05-06 09:45 43.73969 39.64054 20687 ft 377 kts 78°
2026-05-06 09:45 43.74503 39.67614 21219 ft 380 kts 78°
2026-05-06 09:46 43.75040 39.71194 21780 ft 382 kts 78°
2026-05-06 09:46 43.75582 39.74806 22303 ft 385 kts 78°
2026-05-06 09:46 43.76128 39.78447 22835 ft 387 kts 78°
2026-05-06 09:46 43.76677 39.82102 23379 ft 390 kts 78°
2026-05-06 09:47 43.77230 39.85793 23853 ft 393 kts 78°
2026-05-06 09:47 43.77783 39.89501 24291 ft 395 kts 79°
2026-05-06 09:47 43.78330 39.93233 24733 ft 397 kts 79°
2026-05-06 09:47 43.78841 39.96971 25149 ft 399 kts 81°
2026-05-06 09:48 43.79327 40.00756 25587 ft 401 kts 81°
2026-05-06 09:48 43.79802 40.04567 26005 ft 403 kts 81°
2026-05-06 09:48 43.80278 40.08397 26434 ft 405 kts 81°
2026-05-06 09:48 43.80760 40.12243 26852 ft 407 kts 81°
2026-05-06 09:49 43.81250 40.16108 27265 ft 408 kts 81°
2026-05-06 09:49 43.81745 40.19986 27668 ft 410 kts 81°
2026-05-06 09:49 43.82243 40.23877 28093 ft 412 kts 81°
2026-05-06 09:49 43.82744 40.27787 28505 ft 414 kts 81°
2026-05-06 09:50 43.83246 40.31711 28906 ft 416 kts 81°
2026-05-06 09:50 43.83751 40.35665 29294 ft 417 kts 81°
2026-05-06 09:50 43.84252 40.39627 29665 ft 419 kts 81°
2026-05-06 09:50 43.84752 40.43619 30035 ft 421 kts 81°
2026-05-06 09:51 43.85251 40.47631 30348 ft 423 kts 81°
2026-05-06 09:51 43.85750 40.51658 30626 ft 426 kts 81°
2026-05-06 09:51 43.86252 40.55718 30880 ft 428 kts 81°
2026-05-06 09:51 43.86755 40.59794 31132 ft 431 kts 81°
2026-05-06 09:52 43.87256 40.63883 31457 ft 431 kts 81°
2026-05-06 09:52 43.87762 40.67980 31818 ft 431 kts 80°
2026-05-06 09:52 43.88511 40.72010 32164 ft 432 kts 72°
2026-05-06 09:52 43.89655 40.75867 32492 ft 434 kts 68°
2026-05-06 09:53 43.90848 40.79653 32829 ft 434 kts 68°
2026-05-06 09:53 43.92051 40.83499 33171 ft 434 kts 68°
2026-05-06 09:53 43.93243 40.87344 33522 ft 434 kts 68°
2026-05-06 09:53 43.94435 40.91202 33871 ft 435 kts 68°
2026-05-06 09:54 43.95626 40.95053 34180 ft 435 kts 68°
2026-05-06 09:54 43.96816 40.98918 34460 ft 435 kts 68°
2026-05-06 09:54 43.98003 41.02780 34741 ft 435 kts 68°
2026-05-06 09:54 43.99194 41.06655 34980 ft 437 kts 68°
2026-05-06 09:55 44.01579 41.14400 35048 ft 433 kts 68°
2026-05-06 09:55 44.03936 41.22063 35048 ft 431 kts 68°
2026-05-06 09:56 44.06285 41.29727 35049 ft 431 kts 68°
2026-05-06 09:56 44.08612 41.37355 35045 ft 431 kts 68°
2026-05-06 09:57 44.10866 41.45099 35041 ft 429 kts 74°
2026-05-06 09:57 44.11672 41.53250 35039 ft 426 kts 93°
2026-05-06 09:58 44.11448 41.61501 35037 ft 426 kts 93°
2026-05-06 09:58 44.11246 41.69692 35035 ft 426 kts 92°
2026-05-06 09:59 44.11026 41.77938 35033 ft 427 kts 93°
2026-05-06 09:59 44.10795 41.86190 35035 ft 427 kts 93°
2026-05-06 10:00 44.10558 41.94450 35034 ft 427 kts 93°
2026-05-06 10:00 44.10314 42.02718 35036 ft 428 kts 93°
2026-05-06 10:01 44.10063 42.10985 35044 ft 428 kts 93°
2026-05-06 10:01 44.09812 42.19260 35044 ft 427 kts 93°
2026-05-06 10:02 44.09559 42.27524 35051 ft 427 kts 93°
2026-05-06 10:02 44.09292 42.35731 35048 ft 427 kts 94°
2026-05-06 10:03 44.09017 42.43986 35047 ft 427 kts 94°
2026-05-06 10:03 44.08740 42.52239 35047 ft 427 kts 93°
2026-05-06 10:04 44.08454 42.60493 35042 ft 427 kts 94°
2026-05-06 10:04 44.08165 42.68742 35040 ft 427 kts 94°
2026-05-06 10:05 44.07871 42.76992 35035 ft 428 kts 93°
2026-05-06 10:05 44.07568 42.85264 35035 ft 428 kts 94°
2026-05-06 10:06 44.07258 42.93481 35040 ft 428 kts 94°
2026-05-06 10:06 44.06941 43.01754 35041 ft 428 kts 94°
2026-05-06 10:07 44.06623 43.10028 35040 ft 429 kts 94°
2026-05-06 10:07 44.06302 43.18317 35017 ft 430 kts 95°
2026-05-06 10:08 44.05965 43.26626 35011 ft 431 kts 94°
2026-05-06 10:08 44.05621 43.34955 35005 ft 432 kts 94°
2026-05-06 10:09 44.05270 43.43305 35010 ft 432 kts 95°
2026-05-06 10:09 44.04920 43.51607 35016 ft 433 kts 94°
2026-05-06 10:10 44.04563 43.59957 35009 ft 433 kts 94°
2026-05-06 10:10 44.04202 43.68317 35002 ft 433 kts 95°
2026-05-06 10:11 44.03825 43.76684 34997 ft 434 kts 95°
2026-05-06 10:11 44.03444 43.85050 34993 ft 434 kts 95°
2026-05-06 10:12 44.03063 43.93419 35000 ft 435 kts 95°
2026-05-06 10:12 44.02666 44.01804 35003 ft 435 kts 95°
2026-05-06 10:13 44.02268 44.10196 35007 ft 435 kts 95°
2026-05-06 10:13 44.01865 44.18597 35001 ft 436 kts 94°
2026-05-06 10:14 44.01458 44.27015 35005 ft 437 kts 96°
2026-05-06 10:14 44.01031 44.35447 35010 ft 438 kts 95°
2026-05-06 10:15 44.00598 44.43888 35013 ft 438 kts 95°
2026-05-06 10:15 44.00173 44.52333 35012 ft 438 kts 95°
2026-05-06 10:16 43.99744 44.60717 35013 ft 438 kts 95°
2026-05-06 10:16 43.99294 44.69164 35010 ft 438 kts 96°
2026-05-06 10:17 43.98836 44.77606 35012 ft 438 kts 95°
2026-05-06 10:17 43.98455 44.84632 35015 ft 439 kts 95°
2026-05-06 10:18 43.97997 44.93085 35015 ft 438 kts 95°
2026-05-06 10:18 43.97527 45.01529 35006 ft 439 kts 96°
2026-05-06 10:19 43.97052 45.09982 34998 ft 440 kts 96°
2026-05-06 10:19 43.96572 45.18447 34999 ft 440 kts 96°
2026-05-06 10:20 43.96080 45.26919 34994 ft 440 kts 96°
2026-05-06 10:20 43.95586 45.35348 34994 ft 441 kts 96°
2026-05-06 10:21 43.95080 45.43828 34989 ft 441 kts 96°
2026-05-06 10:21 43.94569 45.52327 34990 ft 441 kts 96°
2026-05-06 10:22 43.94050 45.60813 34982 ft 442 kts 96°
2026-05-06 10:22 43.93526 45.69304 34982 ft 442 kts 97°
2026-05-06 10:23 43.93000 45.77785 35002 ft 441 kts 97°
2026-05-06 10:23 43.92468 45.86195 35005 ft 440 kts 97°
2026-05-06 10:24 43.92620 45.94685 34998 ft 442 kts 85°
2026-05-06 10:24 43.93255 46.03178 34991 ft 442 kts 86°
2026-05-06 10:25 43.93875 46.11676 34972 ft 443 kts 86°
2026-05-06 10:25 43.94481 46.20190 34975 ft 444 kts 86°
2026-05-06 10:26 43.95089 46.28726 34974 ft 444 kts 86°
2026-05-06 10:26 43.95689 46.37206 34977 ft 444 kts 86°
2026-05-06 10:27 43.96282 46.45753 34978 ft 444 kts 86°
2026-05-06 10:27 43.96868 46.54296 34972 ft 444 kts 87°
2026-05-06 10:28 43.97450 46.62838 34963 ft 444 kts 87°
2026-05-06 10:28 43.98024 46.71388 34963 ft 445 kts 87°
2026-05-06 10:29 43.98591 46.79953 34966 ft 446 kts 87°
2026-05-06 10:29 43.99165 46.88529 34968 ft 446 kts 87°
2026-05-06 10:30 43.99732 46.97112 34971 ft 446 kts 88°
2026-05-06 10:30 44.00277 47.05701 34963 ft 447 kts 88°
2026-05-06 10:31 44.00811 47.14247 34968 ft 447 kts 88°
2026-05-06 10:31 44.01349 47.22845 34965 ft 447 kts 88°
2026-05-06 10:32 44.01878 47.31452 34948 ft 448 kts 88°
2026-05-06 10:32 44.02402 47.40084 34949 ft 449 kts 88°
2026-05-06 10:33 44.02935 47.48737 34946 ft 450 kts 89°
2026-05-06 10:33 44.03456 47.57407 34952 ft 450 kts 89°
2026-05-06 10:34 44.03966 47.66087 34962 ft 451 kts 89°
2026-05-06 10:34 44.04468 47.74776 34962 ft 451 kts 89°
2026-05-06 10:35 44.04969 47.83409 34967 ft 451 kts 89°
2026-05-06 10:35 44.05457 47.92106 34941 ft 452 kts 90°
2026-05-06 10:36 44.05939 48.00830 34948 ft 453 kts 90°
2026-05-06 10:36 44.06421 48.09573 34956 ft 453 kts 90°
2026-05-06 10:37 44.06899 48.18321 34957 ft 454 kts 90°
2026-05-06 10:37 44.07370 48.27091 34967 ft 454 kts 90°
2026-05-06 10:38 44.07840 48.35858 34965 ft 455 kts 90°
2026-05-06 10:38 44.08299 48.44576 34968 ft 454 kts 90°
2026-05-06 10:39 44.08748 48.53353 34954 ft 454 kts 91°
2026-05-06 10:39 44.09194 48.62127 34956 ft 455 kts 91°
2026-05-06 10:40 44.09634 48.70913 34958 ft 455 kts 91°
2026-05-06 10:40 44.10068 48.79702 34937 ft 455 kts 91°
2026-05-06 10:41 44.10489 48.88455 34944 ft 456 kts 91°
2026-05-06 10:41 44.10923 48.92844 34954 ft 462 kts 78°
2026-05-06 10:41 44.12139 48.97005 34952 ft 469 kts 62°
2026-05-06 10:42 44.14132 49.00628 34951 ft 474 kts 45°
2026-05-06 10:42 44.16767 49.03394 34946 ft 476 kts 28°
2026-05-06 10:42 44.19836 49.05054 34947 ft 474 kts 10°
2026-05-06 10:42 44.23101 49.05445 34942 ft 469 kts 353°
2026-05-06 10:43 44.26289 49.04709 34939 ft 463 kts 339°
2026-05-06 10:43 44.29289 49.03126 34937 ft 460 kts 333°
2026-05-06 10:44 44.38204 48.98013 34944 ft 463 kts 333°
2026-05-06 10:44 44.44152 48.94532 34945 ft 464 kts 333°
2026-05-06 10:45 44.50107 48.91041 34945 ft 464 kts 333°
2026-05-06 10:45 44.56068 48.87549 34968 ft 464 kts 334°
2026-05-06 10:46 44.61988 48.84082 34963 ft 464 kts 334°
2026-05-06 10:46 44.67946 48.80576 34959 ft 463 kts 334°
2026-05-06 10:47 44.73889 48.77084 34978 ft 463 kts 335°
2026-05-06 10:47 44.79829 48.73589 34973 ft 462 kts 335°
2026-05-06 10:48 44.85756 48.70083 34965 ft 461 kts 335°
2026-05-06 10:48 44.91632 48.66595 34970 ft 460 kts 335°
2026-05-06 10:49 44.97529 48.63089 34968 ft 459 kts 335°
2026-05-06 10:49 45.03417 48.59581 34958 ft 459 kts 335°
2026-05-06 10:50 45.09295 48.56071 34938 ft 458 kts 335°
2026-05-06 10:50 45.15168 48.52558 34947 ft 458 kts 335°
2026-05-06 10:51 45.21033 48.49040 34945 ft 457 kts 335°
2026-05-06 10:51 45.26893 48.45522 34944 ft 457 kts 335°
2026-05-06 10:52 45.32757 48.41991 34956 ft 457 kts 336°
2026-05-06 10:52 45.38565 48.38473 34947 ft 456 kts 335°
2026-05-06 10:53 45.44419 48.34928 34944 ft 456 kts 336°
2026-05-06 10:53 45.50255 48.31403 34931 ft 455 kts 336°
2026-05-06 10:54 45.56091 48.27864 34928 ft 455 kts 336°
2026-05-06 10:54 45.61902 48.24324 34928 ft 454 kts 336°
2026-05-06 10:55 45.67713 48.20770 34925 ft 454 kts 336°
2026-05-06 10:55 45.73529 48.17214 34903 ft 454 kts 336°
2026-05-06 10:56 45.79334 48.13654 34908 ft 454 kts 335°
2026-05-06 10:56 45.85135 48.10087 34905 ft 453 kts 335°
2026-05-06 10:57 45.90891 48.06540 34896 ft 453 kts 335°
2026-05-06 10:57 45.96683 48.02964 34884 ft 453 kts 336°
2026-05-06 10:58 46.02478 47.99384 34887 ft 453 kts 336°
2026-05-06 10:58 46.07813 47.94724 34881 ft 449 kts 317°
2026-05-06 10:59 46.11823 47.87910 34889 ft 444 kts 301°
2026-05-06 10:59 46.15202 47.80443 34881 ft 445 kts 301°
2026-05-06 11:00 46.18558 47.73011 34888 ft 444 kts 301°
2026-05-06 11:00 46.21920 47.65522 34884 ft 444 kts 301°
2026-05-06 11:01 46.25272 47.58019 34893 ft 444 kts 301°
2026-05-06 11:01 46.28632 47.50527 34893 ft 444 kts 301°
2026-05-06 11:02 46.31987 47.43040 34891 ft 443 kts 301°
2026-05-06 11:02 46.35330 47.35546 34890 ft 443 kts 301°
2026-05-06 11:03 46.38653 47.28045 34889 ft 443 kts 301°
2026-05-06 11:03 46.41963 47.20569 34885 ft 444 kts 301°
2026-05-06 11:04 46.45296 47.13033 34890 ft 444 kts 301°
2026-05-06 11:04 46.48630 47.05474 34890 ft 444 kts 301°
2026-05-06 11:05 46.51954 46.97905 34896 ft 444 kts 301°
2026-05-06 11:05 46.55268 46.90333 34885 ft 444 kts 301°
2026-05-06 11:06 46.58562 46.82802 34881 ft 445 kts 301°
2026-05-06 11:06 46.61888 46.75183 34879 ft 445 kts 301°
2026-05-06 11:07 46.65194 46.67573 34882 ft 445 kts 301°
2026-05-06 11:07 46.68500 46.59943 34895 ft 446 kts 301°
2026-05-06 11:08 46.71805 46.52298 34895 ft 446 kts 302°
2026-05-06 11:08 46.75111 46.44625 34894 ft 447 kts 301°
2026-05-06 11:09 46.78419 46.36949 34893 ft 447 kts 301°
2026-05-06 11:09 46.81716 46.29261 34908 ft 446 kts 301°
2026-05-06 11:10 46.84986 46.21620 34913 ft 446 kts 301°
2026-05-06 11:10 46.88275 46.13930 34907 ft 446 kts 301°
2026-05-06 11:11 46.91866 46.06523 34902 ft 447 kts 314°
2026-05-06 11:11 46.96779 46.01027 34923 ft 446 kts 333°
2026-05-06 11:12 47.01420 45.97756 34911 ft 445 kts 334°
2026-05-06 11:12 47.07028 45.93842 34899 ft 446 kts 334°
2026-05-06 11:13 47.12633 45.89910 34897 ft 446 kts 334°
2026-05-06 11:13 47.18246 45.85963 34901 ft 446 kts 335°
2026-05-06 11:14 47.23838 45.82024 34904 ft 446 kts 335°
2026-05-06 11:14 47.29428 45.78085 34909 ft 445 kts 335°
2026-05-06 11:15 47.34982 45.74168 34902 ft 445 kts 335°
2026-05-06 11:15 47.40565 45.70213 34896 ft 445 kts 335°
2026-05-06 11:16 47.46155 45.66246 34888 ft 445 kts 335°
2026-05-06 11:16 47.51734 45.62252 34894 ft 446 kts 335°
2026-05-06 11:17 47.57325 45.58248 34886 ft 446 kts 335°
2026-05-06 11:17 47.62913 45.54261 34890 ft 446 kts 335°
2026-05-06 11:18 47.68499 45.50249 34897 ft 445 kts 335°
2026-05-06 11:18 47.74040 45.46246 34898 ft 445 kts 335°
2026-05-06 11:19 47.79533 45.41991 34899 ft 446 kts 327°
2026-05-06 11:19 47.84285 45.36026 34900 ft 448 kts 319°
2026-05-06 11:20 47.88905 45.29787 34901 ft 448 kts 319°
2026-05-06 11:20 47.93525 45.23540 34906 ft 448 kts 319°
2026-05-06 11:21 47.98145 45.17279 34907 ft 449 kts 319°
2026-05-06 11:21 48.02812 45.11083 34910 ft 448 kts 325°
2026-05-06 11:22 48.07960 45.05853 34905 ft 447 kts 328°
2026-05-06 11:22 48.13131 45.00665 34916 ft 448 kts 328°
2026-05-06 11:23 48.18301 44.95469 34900 ft 447 kts 328°
2026-05-06 11:23 48.23465 44.90265 34915 ft 447 kts 328°
2026-05-06 11:24 48.28625 44.85051 34920 ft 447 kts 328°
2026-05-06 11:24 48.33745 44.79865 34920 ft 447 kts 328°
2026-05-06 11:25 48.38902 44.74624 34920 ft 447 kts 328°
2026-05-06 11:25 48.44051 44.69382 34924 ft 447 kts 328°
2026-05-06 11:26 48.49197 44.64130 34924 ft 447 kts 328°
2026-05-06 11:26 48.54345 44.58859 34928 ft 447 kts 328°
2026-05-06 11:27 48.59480 44.53576 34934 ft 446 kts 328°
2026-05-06 11:27 48.64608 44.48283 34936 ft 446 kts 328°
2026-05-06 11:28 48.69736 44.42989 34938 ft 446 kts 328°
2026-05-06 11:28 48.74835 44.37718 34939 ft 446 kts 328°
2026-05-06 11:29 48.80220 44.33149 34924 ft 441 kts 342°
2026-05-06 11:29 48.85986 44.29908 34922 ft 441 kts 342°
2026-05-06 11:30 48.91739 44.26635 34924 ft 442 kts 342°
2026-05-06 11:30 48.97497 44.23365 34936 ft 442 kts 342°
2026-05-06 11:31 49.03258 44.20098 34931 ft 442 kts 341°
2026-05-06 11:31 49.09019 44.16812 34933 ft 442 kts 341°
2026-05-06 11:32 49.14736 44.13539 34934 ft 442 kts 341°
2026-05-06 11:32 49.20493 44.10237 34926 ft 442 kts 341°
2026-05-06 11:33 49.26252 44.06929 34929 ft 442 kts 341°
2026-05-06 11:33 49.32004 44.03620 34931 ft 441 kts 341°
2026-05-06 11:34 49.37754 44.00305 34939 ft 441 kts 341°
2026-05-06 11:34 49.43464 43.97003 34939 ft 441 kts 341°
2026-05-06 11:35 49.49205 43.93674 34937 ft 441 kts 341°
2026-05-06 11:35 49.54766 43.89650 34938 ft 442 kts 333°
2026-05-06 11:36 49.60176 43.85115 34935 ft 443 kts 333°
2026-05-06 11:36 49.65588 43.80577 34923 ft 443 kts 333°
2026-05-06 11:37 49.71004 43.76025 34930 ft 443 kts 333°
2026-05-06 11:37 49.76410 43.71463 34945 ft 442 kts 333°
2026-05-06 11:38 49.81801 43.66899 34945 ft 441 kts 333°
2026-05-06 11:38 49.87188 43.62333 34942 ft 440 kts 333°
2026-05-06 11:39 49.92561 43.57776 34922 ft 440 kts 333°
2026-05-06 11:39 49.97927 43.53210 34936 ft 439 kts 333°
2026-05-06 11:40 50.03269 43.48638 34943 ft 438 kts 333°
2026-05-06 11:40 50.08608 43.44083 34939 ft 437 kts 333°
2026-05-06 11:41 50.13901 43.39545 34937 ft 437 kts 333°
2026-05-06 11:41 50.19231 43.34958 34938 ft 436 kts 333°
2026-05-06 11:42 50.24541 43.30389 34938 ft 435 kts 333°
2026-05-06 11:42 50.29841 43.25810 34938 ft 435 kts 333°
2026-05-06 11:43 50.35135 43.21206 34935 ft 435 kts 333°
2026-05-06 11:43 50.40391 43.16638 34932 ft 434 kts 333°
2026-05-06 11:44 50.48312 43.09740 34933 ft 433 kts 333°
2026-05-06 11:44 50.53574 43.05130 34930 ft 433 kts 332°
2026-05-06 11:45 50.58829 43.00512 34930 ft 433 kts 332°
2026-05-06 11:45 50.64084 42.95893 34919 ft 432 kts 332°
2026-05-06 11:46 50.69324 42.91350 34911 ft 432 kts 336°
2026-05-06 11:46 50.74935 42.88049 34913 ft 430 kts 342°
2026-05-06 11:47 50.80597 42.84910 34913 ft 431 kts 342°
2026-05-06 11:47 50.86252 42.81756 34910 ft 431 kts 342°
2026-05-06 11:48 50.91903 42.78582 34914 ft 431 kts 342°
2026-05-06 11:48 50.97554 42.75409 34918 ft 431 kts 342°
2026-05-06 11:49 51.03170 42.72260 34917 ft 430 kts 342°
2026-05-06 11:49 51.08805 42.69076 34916 ft 430 kts 341°
2026-05-06 11:50 51.14445 42.65886 34907 ft 430 kts 341°
2026-05-06 11:50 51.20093 42.62691 34909 ft 430 kts 341°
2026-05-06 11:51 51.25722 42.59486 34909 ft 429 kts 341°
2026-05-06 11:51 51.31321 42.56283 34908 ft 429 kts 341°
2026-05-06 11:52 51.36948 42.53072 34903 ft 429 kts 341°
2026-05-06 11:52 51.42576 42.49864 34906 ft 429 kts 341°
2026-05-06 11:53 51.48204 42.46633 34914 ft 429 kts 341°
2026-05-06 11:53 51.53791 42.43413 34911 ft 429 kts 341°
2026-05-06 11:54 51.59413 42.40167 34914 ft 429 kts 341°
2026-05-06 11:54 51.65036 42.36902 34916 ft 428 kts 341°
2026-05-06 11:55 51.70644 42.33655 34915 ft 428 kts 341°
2026-05-06 11:55 51.76206 42.30412 34912 ft 427 kts 341°
2026-05-06 11:56 51.81793 42.27146 34908 ft 427 kts 341°
2026-05-06 11:56 51.87378 42.23888 34900 ft 427 kts 341°
2026-05-06 11:57 51.92962 42.20625 34902 ft 427 kts 341°
2026-05-06 11:57 51.98542 42.17334 34903 ft 427 kts 341°
2026-05-06 11:58 52.04119 42.14041 34899 ft 426 kts 341°
2026-05-06 11:58 52.09700 42.10751 34899 ft 427 kts 340°
2026-05-06 11:59 52.14357 42.08076 34899 ft 427 kts 341°
2026-05-06 11:59 52.20937 42.04486 34895 ft 426 kts 342°
2026-05-06 12:00 52.26554 42.01430 34915 ft 425 kts 342°
2026-05-06 12:00 52.32155 41.98322 34903 ft 425 kts 341°
2026-05-06 12:01 52.37818 41.95863 34892 ft 423 kts 354°
2026-05-06 12:01 52.43703 41.95860 34979 ft 426 kts
2026-05-06 12:02 52.46674 41.96027 35284 ft 427 kts
2026-05-06 12:02 52.49641 41.96191 35594 ft 427 kts
2026-05-06 12:02 52.52627 41.96354 35848 ft 429 kts
2026-05-06 12:02 52.55601 41.96517 35901 ft 429 kts
2026-05-06 12:03 52.60556 41.96782 35901 ft 428 kts
2026-05-06 12:03 52.66509 41.96901 35897 ft 428 kts 354°
2026-05-06 12:04 52.72239 41.94405 35898 ft 428 kts 334°
2026-05-06 12:04 52.77146 41.88904 35898 ft 428 kts 321°
2026-05-06 12:05 52.81767 41.82679 35891 ft 428 kts 320°
2026-05-06 12:05 52.86352 41.76484 35896 ft 428 kts 320°
2026-05-06 12:06 52.90960 41.70235 35894 ft 427 kts 320°
2026-05-06 12:06 52.95560 41.63989 35889 ft 428 kts 320°
2026-05-06 12:07 53.00168 41.57721 35887 ft 428 kts 320°
2026-05-06 12:07 53.04760 41.51438 35898 ft 427 kts 320°
2026-05-06 12:08 53.09348 41.45147 35903 ft 427 kts 320°
2026-05-06 12:08 53.13896 41.38904 35897 ft 426 kts 320°
2026-05-06 12:09 53.18468 41.32621 35904 ft 425 kts 320°
2026-05-06 12:09 53.23293 41.26951 35901 ft 426 kts 333°
2026-05-06 12:10 53.28875 41.23654 35902 ft 426 kts 342°
2026-05-06 12:10 53.34549 41.20782 35891 ft 426 kts 341°
2026-05-06 12:11 53.40214 41.17897 35887 ft 426 kts 342°
2026-05-06 12:11 53.45890 41.14977 35884 ft 426 kts 342°
2026-05-06 12:12 53.51562 41.12062 35884 ft 426 kts 341°
2026-05-06 12:12 53.57229 41.09145 35888 ft 426 kts 341°
2026-05-06 12:13 53.62849 41.06234 35885 ft 425 kts 341°
2026-05-06 12:13 53.68144 41.01989 35875 ft 422 kts 322°
2026-05-06 12:14 53.72155 40.94845 35864 ft 420 kts 302°
2026-05-06 12:14 53.74678 40.85990 35875 ft 419 kts 293°
2026-05-06 12:15 53.77000 40.76978 35886 ft 418 kts 293°
2026-05-06 12:15 53.79321 40.67972 35881 ft 418 kts 293°
2026-05-06 12:16 53.81629 40.58946 35876 ft 418 kts 292°
2026-05-06 12:16 53.83925 40.49908 35877 ft 418 kts 292°
2026-05-06 12:17 53.86213 40.40884 35878 ft 417 kts 292°
2026-05-06 12:17 53.88498 40.31838 35885 ft 417 kts 292°
2026-05-06 12:18 53.90767 40.22866 35885 ft 417 kts 292°
2026-05-06 12:18 53.93041 40.13833 35886 ft 416 kts 292°
2026-05-06 12:19 53.95306 40.04802 35886 ft 416 kts 292°
2026-05-06 12:19 53.97562 39.95746 35880 ft 416 kts 292°
2026-05-06 12:20 53.99818 39.86697 35890 ft 416 kts 292°
2026-05-06 12:20 54.02061 39.77647 35890 ft 415 kts 292°
2026-05-06 12:21 54.04296 39.68589 35886 ft 415 kts 292°
2026-05-06 12:21 54.06522 39.59542 35887 ft 414 kts 292°
2026-05-06 12:22 54.08733 39.50485 35856 ft 416 kts 292°
2026-05-06 12:22 54.10963 39.41328 35075 ft 422 kts 292°
2026-05-06 12:23 54.12097 39.36659 34046 ft 430 kts 292°
2026-05-06 12:23 54.13242 39.31925 32945 ft 437 kts 292°
2026-05-06 12:23 54.14392 39.27169 32325 ft 433 kts 292°
2026-05-06 12:23 54.15524 39.22489 31746 ft 428 kts 292°
2026-05-06 12:24 54.16648 39.17820 31189 ft 423 kts 292°
2026-05-06 12:24 54.17757 39.13198 30626 ft 418 kts 292°
2026-05-06 12:24 54.18856 39.08607 30066 ft 414 kts 293°
2026-05-06 12:24 54.19939 39.04077 29482 ft 410 kts 293°
2026-05-06 12:25 54.21009 38.99590 28949 ft 405 kts 292°
2026-05-06 12:25 54.22173 38.95262 28419 ft 399 kts 300°
2026-05-06 12:25 54.23768 38.91427 27912 ft 394 kts 311°
2026-05-06 12:25 54.25751 38.88265 27620 ft 389 kts 322°
2026-05-06 12:26 54.28052 38.85806 27501 ft 391 kts 332°
2026-05-06 12:26 54.30492 38.83720 27308 ft 390 kts 332°
2026-05-06 12:26 54.32915 38.81648 27121 ft 390 kts 332°
2026-05-06 12:26 54.35339 38.79576 26934 ft 389 kts 332°
2026-05-06 12:27 54.37754 38.77513 26744 ft 388 kts 332°
2026-05-06 12:27 54.40170 38.75449 26559 ft 387 kts 332°
2026-05-06 12:27 54.42574 38.73390 26372 ft 386 kts 332°
2026-05-06 12:27 54.44982 38.71326 26186 ft 385 kts 332°
2026-05-06 12:28 54.47380 38.69266 25998 ft 384 kts 332°
2026-05-06 12:28 54.49767 38.67213 25839 ft 383 kts 332°
2026-05-06 12:28 54.52140 38.65165 25863 ft 383 kts 331°
2026-05-06 12:28 54.54525 38.63102 25864 ft 383 kts 331°
2026-05-06 12:29 54.56909 38.61033 25865 ft 383 kts 331°
2026-05-06 12:29 54.59297 38.58957 25865 ft 383 kts 331°
2026-05-06 12:29 54.61669 38.56897 25865 ft 383 kts 331°
2026-05-06 12:29 54.64053 38.54832 25871 ft 383 kts 332°
2026-05-06 12:30 54.66432 38.52771 25865 ft 383 kts 332°
2026-05-06 12:30 54.68815 38.50702 25870 ft 383 kts 331°
2026-05-06 12:30 54.71192 38.48629 25869 ft 383 kts 331°
2026-05-06 12:30 54.73572 38.46548 25878 ft 383 kts 331°
2026-05-06 12:31 54.75951 38.44473 25667 ft 383 kts 331°
2026-05-06 12:31 54.78327 38.42408 25492 ft 381 kts 331°
2026-05-06 12:31 54.80693 38.40358 25291 ft 380 kts 331°
2026-05-06 12:31 54.83028 38.38333 25127 ft 379 kts 330°
2026-05-06 12:32 54.85248 38.35915 24951 ft 376 kts 320°
2026-05-06 12:32 54.87172 38.32878 24776 ft 374 kts 312°
2026-05-06 12:32 54.88985 38.29641 24553 ft 373 kts 312°
2026-05-06 12:32 54.90793 38.26418 24329 ft 372 kts 312°
2026-05-06 12:33 54.92598 38.23196 24102 ft 371 kts 312°
2026-05-06 12:33 54.94403 38.19975 23863 ft 370 kts 312°
2026-05-06 12:33 54.96197 38.16781 23638 ft 369 kts 312°
2026-05-06 12:33 54.97985 38.13591 23407 ft 367 kts 312°
2026-05-06 12:34 54.99762 38.10406 23132 ft 365 kts 312°
2026-05-06 12:34 55.01529 38.07230 22861 ft 364 kts 312°
2026-05-06 12:34 55.03282 38.04067 22589 ft 362 kts 311°
2026-05-06 12:34 55.05034 38.00900 22325 ft 361 kts 311°
2026-05-06 12:35 55.06769 37.97762 22043 ft 357 kts 311°
2026-05-06 12:35 55.08552 37.94849 21609 ft 355 kts 320°
2026-05-06 12:35 55.10692 37.92590 21129 ft 357 kts 333°
2026-05-06 12:35 55.13020 37.91242 20647 ft 359 kts 345°
2026-05-06 12:36 55.15513 37.90780 20163 ft 361 kts 355°
2026-05-06 12:36 55.18025 37.90641 19657 ft 360 kts 355°
2026-05-06 12:36 55.20528 37.90498 19165 ft 360 kts 354°
2026-05-06 12:36 55.23029 37.90349 18678 ft 360 kts 354°
2026-05-06 12:37 55.25534 37.90198 18215 ft 359 kts 354°
2026-05-06 12:37 55.28019 37.90048 17696 ft 358 kts 354°
2026-05-06 12:37 55.30491 37.89899 17304 ft 353 kts 354°
2026-05-06 12:37 55.32948 37.89747 16850 ft 351 kts 354°
2026-05-06 12:38 55.35376 37.89599 16443 ft 347 kts 354°
2026-05-06 12:38 55.37785 37.89451 15988 ft 346 kts 354°
2026-05-06 12:38 55.40179 37.89306 15444 ft 342 kts 353°
2026-05-06 12:38 55.42554 37.89161 14832 ft 340 kts 353°
2026-05-06 12:39 55.44905 37.89023 14332 ft 336 kts 353°
2026-05-06 12:39 55.47223 37.88886 13873 ft 330 kts 353°
2026-05-06 12:39 55.49513 37.88746 13383 ft 329 kts 353°
2026-05-06 12:39 55.51801 37.88603 12906 ft 329 kts 353°
2026-05-06 12:40 55.54059 37.88461 12434 ft 328 kts 353°
2026-05-06 12:40 55.56344 37.88318 11954 ft 328 kts 353°
2026-05-06 12:40 55.58614 37.88180 11529 ft 326 kts 353°
2026-05-06 12:40 55.60871 37.88043 11129 ft 323 kts 353°
2026-05-06 12:41 55.63124 37.87905 10671 ft 323 kts 353°
2026-05-06 12:41 55.65365 37.87765 10218 ft 322 kts 352°
2026-05-06 12:41 55.67559 37.87633 10076 ft 310 kts 352°
2026-05-06 12:41 55.69673 37.87511 9929 ft 299 kts 352°
2026-05-06 12:42 55.71739 37.87388 9528 ft 298 kts 352°
2026-05-06 12:42 55.73796 37.87260 9129 ft 292 kts 352°
2026-05-06 12:42 55.75836 37.87131 8571 ft 290 kts 352°
2026-05-06 12:42 55.77834 37.87004 8004 ft 287 kts 352°
2026-05-06 12:43 55.79813 37.86878 7486 ft 283 kts 352°
2026-05-06 12:43 55.81770 37.86753 6970 ft 279 kts 352°
2026-05-06 12:43 55.83706 37.86632 6417 ft 277 kts 352°
2026-05-06 12:43 55.85577 37.86212 5902 ft 266 kts 339°
2026-05-06 12:44 55.87253 37.84962 5428 ft 259 kts 325°
2026-05-06 12:44 55.88670 37.83020 4957 ft 257 kts 315°
2026-05-06 12:44 55.90000 37.80906 4498 ft 256 kts 316°
2026-05-06 12:44 55.91335 37.78796 4022 ft 258 kts 316°
2026-05-06 12:45 55.92685 37.76672 3642 ft 257 kts 316°
2026-05-06 12:45 55.93979 37.74635 3499 ft 245 kts 316°
2026-05-06 12:45 55.96393 37.70813 3304 ft 219 kts 315°
2026-05-06 12:46 55.97504 37.69053 3202 ft 209 kts 315°
2026-05-06 12:46 55.98561 37.67376 3106 ft 200 kts 315°
2026-05-06 12:46 55.99487 37.65559 2875 ft 196 kts 299°
2026-05-06 12:46 55.99977 37.63379 2685 ft 186 kts 282°
2026-05-06 12:47 56.00015 37.61100 2473 ft 181 kts 264°
2026-05-06 12:47 55.99727 37.58990 2277 ft 168 kts 258°
2026-05-06 12:47 55.99441 37.57049 2049 ft 155 kts 257°
2026-05-06 12:47 55.99184 37.55310 1860 ft 136 kts 260°
2026-05-06 12:48 55.98944 37.53676 1688 ft 136 kts 259°
2026-05-06 12:48 55.98702 37.52034 1507 ft 137 kts 257°
2026-05-06 12:48 55.98464 37.50431 1335 ft 134 kts 255°
2026-05-06 12:48 55.98228 37.48823 1177 ft 131 kts 261°
2026-05-06 12:49 55.97992 37.47215 997 ft 134 kts 259°
2026-05-06 12:49 55.97751 37.45572 821 ft 136 kts 259°
2026-05-06 12:49 55.97507 37.43946 657 ft 134 kts 258°
2026-05-06 12:49 55.97301 37.42546 643 ft 93 kts 255°
2026-05-06 12:50 55.97184 37.41763 645 ft 42 kts 255°
2026-05-06 12:50 55.97141 37.41474 645 ft 12 kts 255°
2026-05-06 12:50 55.97146 37.41367 644 ft 9 kts 306°
2026-05-06 12:50 55.97204 37.41327 639 ft 10 kts 345°
2026-05-06 12:51 55.97297 37.41283 640 ft 17 kts 345°
2026-05-06 12:51 55.97373 37.41248 640 ft 17 kts 343°
2026-05-06 12:51 55.97531 37.41170 639 ft 15 kts 347°
2026-05-06 12:51 55.97611 37.41153 641 ft 9 kts 25°
2026-05-06 12:52 55.97635 37.41251 644 ft 10 kts 76°
2026-05-06 12:52 55.97656 37.41389 640 ft 11 kts 74°
2026-05-06 12:52 55.97675 37.41516 641 ft 8 kts 75°
2026-05-06 12:52 55.97717 37.41562 639 ft 9 kts 356°
2026-05-06 12:53 55.97785 37.41531 639 ft 11 kts 345°
2026-05-06 12:53 55.97863 37.41493 647 ft 12 kts 345°
2026-05-06 12:53 55.97919 37.41466 639 ft 10 kts 347°
2026-05-06 12:53 55.97951 37.41547 639 ft 8 kts 76°
2026-05-06 12:54 55.97960 37.41613 639 ft 2 kts 76°
2026-05-06 12:54 55.97961 37.41621 639 ft 0 kts 76°